.
WxDataArchive / Data Records for 2010-11-28
2010-11-27 November 2010 2010-11-29

Data Records for Sunday, 28 November 2010

Time	Temp	Chill	HIndex	Humid	Dewpt	 Wind 	HiWind	WindDir	Rain 	Barom 
-----	----	-----	------	-----	-----	------	------	-------	-----	----- 
00:00	18.0	18.0	18.0	88	15.1	0	0	---	0.00	30.242 
00:05	17.8	17.8	17.8	88	14.9	0	0	---	0.00	30.242 
00:10	17.8	17.8	17.8	88	14.9	0	0	---	0.00	30.242 
00:15	17.8	17.8	17.8	88	14.9	0	0	---	0.00	30.238 
00:20	17.8	17.8	17.8	88	14.9	0	0	---	0.00	30.238 
00:25	17.8	17.8	17.8	88	14.9	0	0	---	0.00	30.238 
00:30	17.8	17.8	17.8	89	15.1	0	0	---	0.00	30.239 
00:35	17.8	17.8	17.8	89	15.1	0	0	---	0.00	30.239 
00:40	17.7	17.7	17.7	89	15.0	0	0	---	0.00	30.239 
00:45	17.5	17.5	17.5	89	14.8	0	0	---	0.00	30.237 
00:50	17.3	17.3	17.3	88	14.4	0	0	---	0.00	30.237 
00:55	17.3	17.3	17.3	89	14.6	0	0	---	0.00	30.237 
01:00	17.2	17.2	17.2	89	14.5	0	0	---	0.00	30.238 
01:05	17.2	17.2	17.2	89	14.5	0	0	---	0.00	30.238 
01:10	17.2	17.2	17.2	89	14.5	0	0	---	0.00	30.238 
01:15	17.0	17.0	17.0	89	14.3	0	0	---	0.00	30.240 
01:20	17.0	17.0	17.0	89	14.3	0	0	---	0.00	30.240 
01:25	17.0	17.0	17.0	89	14.3	0	0	---	0.00	30.240 
01:30	16.9	16.9	16.9	89	14.2	0	0	---	0.00	30.244 
01:35	16.9	16.9	16.9	89	14.2	0	0	---	0.00	30.244 
01:40	16.7	16.7	16.7	89	14.0	0	0	---	0.00	30.244 
01:45	16.7	16.7	16.7	89	14.0	0	0	---	0.00	30.245 
01:50	16.5	16.5	16.5	89	13.8	0	0	---	0.00	30.245 
01:55	16.5	16.5	16.5	89	13.8	0	0	---	0.00	30.245 
02:00	16.5	16.5	16.5	89	13.8	0	0	---	0.00	30.248 
02:05	16.5	16.5	16.5	89	13.8	0	0	---	0.00	30.248 
02:10	16.5	16.5	16.5	89	13.8	0	0	---	0.00	30.248 
02:15	16.5	16.5	16.5	89	13.8	0	0	---	0.00	30.260 
02:20	16.5	16.5	16.5	89	13.8	0	0	---	0.00	30.260 
02:25	16.5	16.5	16.5	89	13.8	0	0	---	0.00	30.260 
02:30	16.5	16.5	16.5	89	13.8	0	0	---	0.00	30.261 
02:35	16.7	16.7	16.7	89	14.0	0	0	---	0.00	30.261 
02:40	16.5	16.5	16.5	89	13.8	0	0	---	0.00	30.261 
02:45	16.5	16.5	16.5	89	13.8	0	0	---	0.00	30.262 
02:50	16.5	16.5	16.5	89	13.8	0	0	---	0.00	30.262 
02:55	16.4	16.4	16.4	89	13.7	0	0	---	0.00	30.262 
03:00	16.4	16.4	16.4	89	13.7	0	0	---	0.00	30.264 
03:05	16.2	16.2	16.2	89	13.5	0	0	---	0.00	30.264 
03:10	16.2	16.2	16.2	89	13.5	0	0	---	0.00	30.264 
03:15	16.2	16.2	16.2	89	13.5	0	0	---	0.00	30.267 
03:20	16.2	16.2	16.2	89	13.5	0	0	---	0.00	30.267 
03:25	16.2	16.2	16.2	89	13.5	0	0	---	0.00	30.267 
03:30	16.2	16.2	16.2	89	13.5	0	0	---	0.00	30.264 
03:35	16.4	16.4	16.4	89	13.7	0	0	---	0.00	30.264 
03:40	16.4	16.4	16.4	89	13.7	0	0	---	0.00	30.264 
03:45	16.4	16.4	16.4	89	13.7	0	0	---	0.00	30.264 
03:50	16.4	16.4	16.4	89	13.7	0	0	---	0.00	30.264 
03:55	16.5	16.5	16.5	89	13.8	0	0	---	0.00	30.264 
04:00	16.5	16.5	16.5	89	13.8	0	0	---	0.00	30.266 
04:05	16.5	16.5	16.5	89	13.8	0	0	---	0.00	30.266 
04:10	16.7	16.7	16.7	89	14.0	0	0	---	0.00	30.266 
04:15	16.7	16.7	16.7	89	14.0	0	0	---	0.00	30.276 
04:20	16.7	16.7	16.7	89	14.0	0	0	---	0.00	30.276 
04:25	16.9	16.9	16.9	89	14.2	0	0	---	0.00	30.276 
04:30	16.9	16.9	16.9	89	14.2	0	0	---	0.00	30.278 
04:35	16.9	16.9	16.9	89	14.2	0	0	---	0.00	30.278 
04:40	16.9	16.9	16.9	89	14.2	0	0	---	0.00	30.278 
04:45	16.7	16.7	16.7	89	14.0	0	0	---	0.00	30.281 
04:50	16.5	16.5	16.5	89	13.8	0	0	---	0.00	30.281 
04:55	16.5	16.5	16.5	89	13.8	0	0	---	0.00	30.281 
05:00	16.5	16.5	16.5	89	13.8	0	0	---	0.00	30.284 
05:05	16.4	16.4	16.4	89	13.7	0	0	---	0.00	30.284 
05:10	16.5	16.5	16.5	89	13.8	0	0	---	0.00	30.284 
05:15	16.5	16.5	16.5	89	13.8	0	0	---	0.00	30.290 
05:20	16.5	16.5	16.5	89	13.8	0	0	---	0.00	30.290 
05:25	16.5	16.5	16.5	89	13.8	0	0	---	0.00	30.290 
05:30	16.5	16.5	16.5	89	13.8	0	0	---	0.00	30.294 
05:35	16.5	16.5	16.5	89	13.8	0	0	---	0.00	30.294 
05:40	16.5	16.5	16.5	89	13.8	0	0	---	0.00	30.294 
05:45	16.5	16.5	16.5	89	13.8	0	0	---	0.00	30.296 
05:50	16.5	16.5	16.5	89	13.8	0	0	---	0.00	30.296 
05:55	16.5	16.5	16.5	89	13.8	0	0	---	0.00	30.296 
06:00	16.5	16.5	16.5	89	13.8	0	0	---	0.00	30.297 
06:05	16.5	16.5	16.5	89	13.8	0	0	---	0.00	30.297 
06:10	16.5	16.5	16.5	89	13.8	0	0	---	0.00	30.297 
06:15	16.5	16.5	16.5	89	13.8	0	0	---	0.00	30.308 
06:20	16.5	16.5	16.5	89	13.8	0	0	---	0.00	30.308 
06:25	16.4	16.4	16.4	89	13.7	0	0	---	0.00	30.308 
06:30	16.4	16.4	16.4	89	13.7	0	0	---	0.00	30.308 
06:35	16.2	16.2	16.2	89	13.5	0	0	---	0.00	30.308 
06:40	16.2	16.2	16.2	89	13.5	0	0	---	0.00	30.308 
06:45	16.2	16.2	16.2	89	13.5	0	0	---	0.00	30.313 
06:50	16.4	16.4	16.4	89	13.7	0	0	---	0.00	30.313 
06:55	16.4	16.4	16.4	89	13.7	0	0	---	0.00	30.313 
07:00	16.2	16.2	16.2	89	13.5	0	0	---	0.00	30.314 
07:05	16.1	16.1	16.1	89	13.4	0	0	---	0.00	30.314 
07:10	16.1	16.1	16.1	89	13.4	0	0	---	0.00	30.314 
07:15	15.9	15.9	15.9	89	13.2	0	0	---	0.00	30.322 
07:20	15.9	15.9	15.9	89	13.2	0	0	---	0.00	30.322 
07:25	15.9	15.9	15.9	89	13.2	0	0	---	0.00	30.322 
07:30	15.9	15.9	15.9	89	13.2	0	0	---	0.00	30.321 
07:35	15.9	15.9	15.9	89	13.2	0	0	---	0.00	30.321 
07:40	15.9	15.9	15.9	89	13.2	0	0	---	0.00	30.321 
07:45	15.9	15.9	15.9	89	13.2	0	0	---	0.00	30.331 
07:50	15.9	15.9	15.9	89	13.2	0	0	---	0.00	30.331 
07:55	16.1	16.1	16.1	89	13.4	0	0	---	0.00	30.331 
08:00	16.4	16.4	16.4	89	13.7	0	0	---	0.00	30.333 
08:05	16.5	16.5	16.5	89	13.8	0	0	---	0.00	30.333 
08:10	16.7	16.7	16.7	89	14.0	0	0	---	0.00	30.333 
08:15	17.0	17.0	17.0	90	14.6	0	0	---	0.00	30.337 
08:20	17.7	17.7	17.7	91	15.5	0	0	---	0.00	30.337 
08:25	18.3	18.3	18.3	91	16.1	0	0	---	0.00	30.337 
08:30	18.8	18.8	18.8	91	16.6	0	0	---	0.00	30.345 
08:35	19.2	19.2	19.2	91	17.0	0	0	---	0.00	30.345 
08:40	19.5	19.5	19.5	91	17.3	0	0	---	0.00	30.345 
08:45	20.0	20.0	20.0	91	17.8	0	0	---	0.00	30.352 
08:50	20.6	20.6	20.6	91	18.4	0	0	---	0.00	30.352 
08:55	21.4	21.4	21.4	91	19.2	0	1	338	0.00	30.352 
09:00	22.1	22.1	22.1	92	20.1	0	0	---	0.00	30.354 
09:05	22.7	22.7	22.7	92	20.7	0	1	338	0.00	30.354 
09:10	23.5	23.5	23.5	92	21.5	0	1	338	0.00	30.354 
09:15	23.9	23.9	23.9	92	21.9	0	1	338	0.00	30.354 
09:20	24.5	24.5	24.5	92	22.5	0	2	338	0.00	30.354 
09:25	25.1	25.1	25.1	91	22.9	0	1	338	0.00	30.354 
09:30	25.6	25.6	25.6	91	23.3	0	0	---	0.00	30.355 
09:35	26.0	26.0	26.0	90	23.5	0	1	338	0.00	30.355 
09:40	26.3	26.3	26.3	90	23.8	0	1	338	0.00	30.355 
09:45	26.6	26.6	26.6	89	23.8	0	0	---	0.00	30.357 
09:50	27.0	27.0	27.0	89	24.2	0	1	338	0.00	30.357 
09:55	27.3	27.3	27.3	88	24.2	0	2	338	0.00	30.357 
10:00	27.8	27.8	27.8	88	24.7	0	2	248	0.00	30.360 
10:05	28.2	28.2	28.2	87	24.8	0	1	248	0.00	30.360 
10:10	28.7	28.7	28.7	85	24.8	0	2	248	0.00	30.360 
10:15	29.1	29.1	29.1	83	24.6	0	2	248	0.00	30.359 
10:20	29.5	29.5	29.5	82	24.7	0	2	248	0.00	30.359 
10:25	30.0	30.0	30.0	79	24.3	1	5	248	0.00	30.359 
10:30	30.3	30.3	30.3	78	24.3	1	3	248	0.00	30.358 
10:35	30.7	30.7	30.7	78	24.7	0	2	248	0.00	30.358 
10:40	31.0	31.0	31.0	76	24.3	1	4	248	0.00	30.358 
10:45	31.5	31.5	31.5	75	24.5	1	4	248	0.00	30.357 
10:50	31.8	31.8	31.8	74	24.5	1	4	248	0.00	30.357 
10:55	32.2	32.2	32.2	74	24.9	0	2	248	0.00	30.357 
11:00	32.8	32.8	32.8	73	25.1	1	3	112	0.00	30.352 
11:05	33.1	33.1	33.1	72	25.1	1	4	248	0.00	30.352 
11:10	33.4	33.4	33.4	72	25.4	1	3	248	0.00	30.352 
11:15	33.7	33.7	33.7	71	25.3	1	3	90	0.00	30.349 
11:20	34.0	34.0	34.0	71	25.6	1	4	90	0.00	30.349 
11:25	34.3	34.3	34.3	70	25.5	1	3	90	0.00	30.349 
11:30	34.7	34.7	34.7	69	25.6	0	3	90	0.00	30.349 
11:35	35.0	35.0	35.0	69	25.9	0	3	90	0.00	30.349 
11:40	35.3	35.3	35.3	68	25.8	0	3	270	0.00	30.349 
11:45	35.6	35.6	35.6	68	26.1	1	5	270	0.00	30.335 
11:50	36.0	36.0	36.0	67	26.1	2	4	90	0.00	30.335 
11:55	36.3	36.3	36.3	66	26.0	1	6	45	0.00	30.335 
12:00	36.5	36.5	36.5	64	25.5	2	5	248	0.00	30.330 
12:05	36.8	36.8	36.8	64	25.8	1	5	248	0.00	30.330 
12:10	36.9	36.9	36.9	64	25.9	1	4	248	0.00	30.330 
12:15	37.2	37.2	37.2	64	26.2	1	5	248	0.00	30.317 
12:20	37.3	37.3	37.3	62	25.5	2	6	112	0.00	30.317 
12:25	37.5	37.5	37.5	62	25.7	2	4	90	0.00	30.317 
12:30	37.5	37.5	37.5	61	25.3	1	6	270	0.00	30.309 
12:35	37.6	37.6	37.6	62	25.8	1	4	248	0.00	30.309 
12:40	37.9	37.9	37.9	62	26.1	1	3	248	0.00	30.309 
12:45	38.2	38.2	38.2	61	26.0	1	3	248	0.00	30.301 
12:50	38.5	38.5	38.5	61	26.2	0	2	270	0.00	30.301 
12:55	38.5	38.5	38.5	59	25.4	1	6	112	0.00	30.301 
13:00	38.6	38.6	38.6	60	25.9	1	3	45	0.00	30.298 
13:05	38.8	38.8	38.8	59	25.7	1	5	112	0.00	30.298 
13:10	38.9	38.9	38.9	60	26.2	0	3	112	0.00	30.298 
13:15	38.9	38.9	38.9	58	25.4	1	5	112	0.00	30.297 
13:20	39.2	39.2	39.2	58	25.7	1	3	248	0.00	30.297 
13:25	39.2	39.2	39.2	58	25.7	1	4	90	0.00	30.297 
13:30	39.5	39.5	39.5	57	25.5	1	3	225	0.00	30.290 
13:35	39.6	39.6	39.6	57	25.6	1	3	248	0.00	30.290 
13:40	39.6	39.6	39.6	57	25.6	1	4	248	0.00	30.290 
13:45	39.9	39.9	39.9	57	25.9	1	3	248	0.00	30.286 
13:50	39.9	39.9	39.9	56	25.5	1	5	270	0.00	30.286 
13:55	40.1	40.1	40.1	55	25.2	1	3	112	0.00	30.286 
14:00	40.1	40.1	40.1	55	25.2	1	4	292	0.00	30.283 
14:05	39.9	39.9	39.9	54	24.6	1	4	112	0.00	30.283 
14:10	40.1	40.1	40.1	54	24.8	0	2	270	0.00	30.283 
14:15	40.1	40.1	40.1	54	24.8	0	2	270	0.00	30.274 
14:20	40.2	40.2	40.2	54	24.9	1	3	112	0.00	30.274 
14:25	40.3	40.3	40.3	54	25.0	1	3	112	0.00	30.274 
14:30	40.5	40.5	40.5	54	25.2	1	3	90	0.00	30.275 
14:35	40.5	40.5	40.5	53	24.7	1	3	90	0.00	30.275 
14:40	40.6	40.6	40.6	54	25.3	0	3	90	0.00	30.275 
14:45	40.6	40.6	40.6	54	25.3	1	3	90	0.00	30.279 
14:50	40.6	40.6	40.6	53	24.8	0	2	90	0.00	30.279 
14:55	40.5	40.5	40.5	53	24.7	0	2	90	0.00	30.279 
15:00	40.5	40.5	40.5	53	24.7	1	2	90	0.00	30.274 
15:05	40.3	40.3	40.3	53	24.5	1	4	90	0.00	30.274 
15:10	40.3	40.3	40.3	54	25.0	1	4	112	0.00	30.274 
15:15	40.5	40.5	40.5	52	24.3	1	3	112	0.00	30.271 
15:20	40.5	40.5	40.5	52	24.3	1	4	90	0.00	30.271 
15:25	40.6	40.6	40.6	52	24.4	1	3	90	0.00	30.271 
15:30	40.8	40.8	40.8	52	24.6	1	3	90	0.00	30.270 
15:35	40.9	40.9	40.9	52	24.6	0	3	90	0.00	30.270 
15:40	40.9	40.9	40.9	53	25.1	1	3	90	0.00	30.270 
15:45	40.9	40.9	40.9	53	25.1	0	2	90	0.00	30.268 
15:50	40.9	40.9	40.9	53	25.1	1	3	90	0.00	30.268 
15:55	40.8	40.8	40.8	53	25.0	1	3	135	0.00	30.268 
16:00	40.6	40.6	40.6	54	25.3	1	3	90	0.00	30.274 
16:05	40.6	40.6	40.6	54	25.3	0	2	90	0.00	30.274 
16:10	40.5	40.5	40.5	54	25.2	0	2	90	0.00	30.274 
16:15	40.3	40.3	40.3	54	25.0	1	3	90	0.00	30.268 
16:20	40.2	40.2	40.2	55	25.3	1	3	90	0.00	30.268 
16:25	40.1	40.1	40.1	55	25.2	1	3	90	0.00	30.268 
16:30	39.9	39.9	39.9	56	25.5	1	3	112	0.00	30.263 
16:35	39.6	39.6	39.6	57	25.6	1	2	112	0.00	30.263 
16:40	39.5	39.5	39.5	57	25.5	0	2	112	0.00	30.263 
16:45	39.3	39.3	39.3	58	25.8	0	2	112	0.00	30.263 
16:50	39.1	39.1	39.1	58	25.6	0	3	112	0.00	30.263 
16:55	38.8	38.8	38.8	58	25.3	0	1	112	0.00	30.263 
17:00	38.5	38.5	38.5	59	25.4	0	2	112	0.00	30.253 
17:05	38.2	38.2	38.2	60	25.6	0	1	112	0.00	30.253 
17:10	37.8	37.8	37.8	60	25.2	0	1	112	0.00	30.253 
17:15	37.5	37.5	37.5	61	25.3	0	0	---	0.00	30.255 
17:20	37.2	37.2	37.2	62	25.4	0	1	112	0.00	30.255 
17:25	36.8	36.8	36.8	62	25.0	0	1	112	0.00	30.255 
17:30	36.6	36.6	36.6	63	25.2	0	2	112	0.00	30.258 
17:35	36.5	36.5	36.5	64	25.5	0	1	112	0.00	30.258 
17:40	36.2	36.2	36.2	64	25.2	0	1	112	0.00	30.258 
17:45	36.0	36.0	36.0	65	25.4	0	2	112	0.00	30.260 
17:50	35.9	35.9	35.9	65	25.3	0	1	112	0.00	30.260 
17:55	35.8	35.8	35.8	65	25.2	0	1	112	0.00	30.260 
18:00	35.6	35.6	35.6	66	25.4	0	1	112	0.00	30.265 
18:05	35.3	35.3	35.3	66	25.1	0	1	112	0.00	30.265 
18:10	35.2	35.2	35.2	67	25.4	0	2	112	0.00	30.265 
18:15	35.0	35.0	35.0	67	25.2	0	2	112	0.00	30.270 
18:20	34.9	34.9	34.9	68	25.4	0	2	112	0.00	30.270 
18:25	34.7	34.7	34.7	68	25.2	0	2	112	0.00	30.270 
18:30	34.6	34.6	34.6	68	25.1	0	2	112	0.00	30.268 
18:35	34.6	34.6	34.6	69	25.5	0	2	112	0.00	30.268 
18:40	34.4	34.4	34.4	69	25.3	1	3	112	0.00	30.268 
18:45	34.3	34.3	34.3	69	25.2	0	2	112	0.00	30.267 
18:50	34.3	34.3	34.3	69	25.2	1	2	112	0.00	30.267 
18:55	34.3	34.3	34.3	69	25.2	0	2	112	0.00	30.267 
19:00	34.1	34.1	34.1	69	25.0	0	1	112	0.00	30.271 
19:05	34.0	34.0	34.0	69	24.9	0	2	112	0.00	30.271 
19:10	33.8	33.8	33.8	70	25.1	0	2	112	0.00	30.271 
19:15	33.7	33.7	33.7	70	25.0	0	2	112	0.00	30.271 
19:20	33.5	33.5	33.5	70	24.8	0	2	112	0.00	30.271 
19:25	33.5	33.5	33.5	71	25.1	1	3	112	0.00	30.271 
19:30	33.4	33.4	33.4	71	25.0	1	3	112	0.00	30.261 
19:35	33.4	33.4	33.4	71	25.0	1	3	112	0.00	30.261 
19:40	33.4	33.4	33.4	71	25.0	1	2	112	0.00	30.261 
19:45	33.4	33.4	33.4	71	25.0	1	2	112	0.00	30.260 
19:50	33.4	33.4	33.4	72	25.4	1	2	112	0.00	30.260 
19:55	33.2	33.2	33.2	72	25.2	1	3	112	0.00	30.260 
20:00	33.2	33.2	33.2	72	25.2	0	2	112	0.00	30.259 
20:05	33.1	33.1	33.1	73	25.4	0	2	112	0.00	30.259 
20:10	32.9	32.9	32.9	73	25.2	0	2	112	0.00	30.259 
20:15	32.9	32.9	32.9	73	25.2	0	2	112	0.00	30.254 
20:20	32.8	32.8	32.8	73	25.1	0	1	112	0.00	30.254 
20:25	32.7	32.7	32.7	73	25.0	0	2	112	0.00	30.254 
20:30	32.5	32.5	32.5	74	25.2	0	2	112	0.00	30.245 
20:35	32.5	32.5	32.5	74	25.2	0	1	112	0.00	30.245 
20:40	32.5	32.5	32.5	74	25.2	0	2	112	0.00	30.245 
20:45	32.4	32.4	32.4	74	25.1	0	1	112	0.00	30.243 
20:50	32.2	32.2	32.2	75	25.2	0	2	112	0.00	30.243 
20:55	32.1	32.1	32.1	75	25.1	0	1	112	0.00	30.243 
21:00	31.9	31.9	31.9	76	25.2	0	1	112	0.00	30.244 
21:05	31.8	31.8	31.8	76	25.1	0	2	112	0.00	30.244 
21:10	31.6	31.6	31.6	76	24.9	0	1	112	0.00	30.244 
21:15	31.5	31.5	31.5	77	25.1	0	1	112	0.00	30.234 
21:20	31.5	31.5	31.5	77	25.1	0	1	112	0.00	30.234 
21:25	31.3	31.3	31.3	77	24.9	0	2	112	0.00	30.234 
21:30	31.3	31.3	31.3	77	24.9	0	3	112	0.00	30.233 
21:35	31.3	31.3	31.3	77	24.9	0	1	112	0.00	30.233 
21:40	31.3	31.3	31.3	78	25.3	0	2	112	0.00	30.233 
21:45	31.3	31.3	31.3	78	25.3	0	3	112	0.00	30.222 
21:50	31.5	31.5	31.5	78	25.4	0	2	112	0.00	30.222 
21:55	31.5	31.5	31.5	78	25.4	0	2	112	0.00	30.222 
22:00	31.5	31.5	31.5	78	25.4	0	1	112	0.00	30.218 
22:05	31.5	31.5	31.5	78	25.4	0	1	112	0.00	30.218 
22:10	31.3	31.3	31.3	79	25.6	0	1	112	0.00	30.218 
22:15	31.2	31.2	31.2	79	25.5	0	0	---	0.00	30.213 
22:20	30.9	30.9	30.9	79	25.2	0	0	---	0.00	30.213 
22:25	30.6	30.6	30.6	79	24.9	0	0	---	0.00	30.213 
22:30	30.3	30.3	30.3	80	24.9	0	0	---	0.00	30.216 
22:35	30.1	30.1	30.1	81	25.0	0	1	112	0.00	30.216 
22:40	30.1	30.1	30.1	81	25.0	0	0	---	0.00	30.216 
22:45	30.3	30.3	30.3	81	25.2	0	1	112	0.00	30.216 
22:50	30.3	30.3	30.3	81	25.2	0	1	112	0.00	30.216 
22:55	30.3	30.3	30.3	82	25.5	0	2	112	0.00	30.216 
23:00	30.3	30.3	30.3	82	25.5	0	1	112	0.00	30.217 
23:05	30.3	30.3	30.3	82	25.5	0	2	112	0.00	30.217 
23:10	30.3	30.3	30.3	82	25.5	1	2	112	0.00	30.217 
23:15	30.3	30.3	30.3	82	25.5	0	2	112	0.00	30.209 
23:20	30.1	30.1	30.1	82	25.3	0	2	112	0.00	30.209 
23:25	30.1	30.1	30.1	82	25.3	0	2	112	0.00	30.209 
23:30	30.0	30.0	30.0	82	25.2	0	1	112	0.00	30.204 
23:35	30.0	30.0	30.0	82	25.2	0	1	112	0.00	30.204 
23:40	29.8	29.8	29.8	83	25.3	0	2	112	0.00	30.204 
23:45	29.8	29.8	29.8	83	25.3	1	2	112	0.00	30.202 
23:50	29.8	29.8	29.8	83	25.3	0	1	112	0.00	30.202 
23:55	29.5	29.5	29.5	82	24.7	0	0	---	0.00	30.202 

CoCoRaHS
IN-AL-39
A2 Web Hosting
Creative Commons License
GoDaddy
search engine by freefind advanced

loaded 2018-11-17 18:14:52 • last modified 2010-11-18 10:43:29
Privacy PolicyDisclaimer
• wx.awcolley.com is powered by PmWiki v.2002016 •
• all content (unless otherwise noted) © 2018 A W Colley